Location: Wildlife_Club
(35.6000°N, 81.4330°W)
Time: 01:02:43
(UTC-04:00)

Vanguard 2 - Pass Details

Date: 29 June 2019
Orbit: 553 x 2938 km, 32.9° (Epoch: 23 July)

Event Time Altitude Azimuth Distance (km) Brightness Sun altitude
Exits shadow 05:41:15 - 206° (SSW) 2,470 9.6 -6.3°
Reaches altitude 10° 05:43:16 10° 188° (S) 1,869 9.1 -5.9°
Maximum altitude 05:45:32 14° 154° (SSE) 1,556 9.1 -5.6°
Drops below altitude 10° 05:47:45 10° 119° (ESE) 1,825 9.9 -5.2°
Sets 05:50:55 0° 93° (E) 2,817 11.4 -4.6°
